Home > Weather > Zwettl > Past weeks

Flag for Austria Past Weather in Zwettl, Lower Austria, Austria — Yesterday and Last 2 Weeks

Now
65 °F

Partly sunny.


Feels Like: 65 °F
Forecast: 51 / 71 °F
Wind: 3 mph from Northwest

Location: Retz

Current Time: Jun 27, 2016 at 8:40:14 PM

Latest Report: Jun 27, 2016 at 8:00 PM


Visibility: 22 mi

Pressure: 30.05 "Hg (28.26 "Hg at 524m altitude)

Humidity: 71%

Dew Point: 55 °F

Location of ZwettlLocation

Past Weather in Zwettl — Graph

°F

Zwettl Temperature Yesterday

Maximum temperature yesterday: 73 °F (at 6:00 PM)
Minimum temperature yesterday: 64 °F (at 3:00 AM)
Average temperature yesterday: 68 °F

High & Low Weather Summary for the Past Weeks

 TemperatureHumidityPressure
High89 °F (Jun 25, 3:00 PM)98% (Jun 20, 11:00 PM)30.27 "Hg (Jun 20, 11:00 PM)
Low54 °F (Jun 14, 5:00 AM)36% (Jun 18, 3:00 PM)29.44 "Hg (Jun 17, 4:00 AM)
Average68 °F70%29.91 "Hg
* Reported Jun 12 7:00 PM — Jun 27 7:00 PM, Zwettl, Weather by CustomWeather, © 2016

Note: Actual official high and low records may vary slightly from our data, if they occured in-between our weather recording intervals... More about our weather records

Advertising

Zwettl Weather History for the Previous 24 Hours

Scroll right to see more
 ConditionsComfort  
Time TempWeatherWind HumidityBarometerVisibility
7:00 PM
Mon, Jun 27
64 °FMild.3 mph72%30.06 "HgN/A
6:00 PM64 °FMild.5 mph69%30.05 "HgN/A
5:00 PM64 °FMild.6 mph72%30.05 "HgN/A
4:00 PM65 °FMild.6 mph73%30.05 "HgN/A
3:00 PM65 °FMild.7 mph71%30.06 "HgN/A
2:00 PM64 °FOvercast.6 mph81%30.07 "Hg12 mi
1:00 PM61 °FCool.6 mph85%30.08 "HgN/A
12:00 PM59 °FFog.9 mph91%30.09 "HgN/A
11:00 AM59 °FCool.6 mph92%30.08 "HgN/A
10:00 AM59 °FFog.6 mph93%30.07 "HgN/A
9:00 AM60 °FFog.2 mph95%30.06 "HgN/A
8:00 AM62 °FSprinkles. Overcast.1 mph87%30.04 "Hg8 mi
7:00 AM62 °FOvercast.2 mph87%30.03 "Hg11 mi
6:00 AM62 °FCool.5 mph88%30.03 "HgN/A
5:00 AM62 °FSprinkles. Cloudy.2 mph90%30.03 "HgN/A
4:00 AM62 °FMild.2 mph84%30.01 "HgN/A
3:00 AM64 °FMild.3 mph77%30.02 "HgN/A
2:00 AM62 °FCool.3 mph81%30.02 "HgN/A
1:00 AM64 °FMild.1 mph73%30.03 "HgN/A
12:00 AM64 °FMild.1 mph73%30.03 "HgN/A
11:00 PM
Sun, Jun 26
64 °FMild.1 mph79%30.03 "HgN/A
10:00 PM65 °FFog.3 mph75%30.02 "HgN/A
9:00 PM68 °FMild.2 mph70%30.00 "HgN/A
8:00 PM71 °FScattered clouds.3 mph64%29.98 "Hg22 mi
Weather by CustomWeather, © 2016

See weather overviewHow to use our weather pages